Weather History for Alexandria, LA

Change the Weather History Date:

Wednesday, January 16, 2008

  Actual Average Record
Temperature  
Mean Temperature 50 °F 49 °F  
Max Temperature 51 °F 59 °F 79 °F (1935)
Min Temperature 48 °F 38 °F 18 °F (1972)
Degree Days  
Heating Degree Days 15 16  
Month to date heating degree days 214 256  
Since 1 July heating degree days 801 1045  
Moisture  
Dew Point 45 °F    
Average Humidity 87    
Maximum Humidity 90    
Minimum Humidity 77    
Precipitation  
Precipitation 0.76 in 0.15 in 1.83 in (2001)
Month to date precipitation 1.59 2.42  
Year to date precipitation 1.59 2.42  
Snow  
Snow 0.00 in - T in (1957)
Month to date snowfall 0.0  
Since 1 July snowfall 0.0  
Snow Depth 0.00 in    
Sea Level Pressure  
Sea Level Pressure 30.00 in    
Wind  
Wind Speed 6 mph (East)    
Max Wind Speed 17 mph    
Max Gust Speed 22 mph    
Visibility 6 miles    
Events Rain    
T = Trace of Precipitation, MM = Missing Value Source: NWS Daily Summary

Daily Weather History Graph

Daily Weather History Graph

Search for Another Location

Airport:

Trip Planner

Search our weather history database for the weather conditions in past years. The results will help you decide how hot, cold, wet, or windy it might be!

Date:

Astronomy

Jan. 16, 2008 Rise Set
Actual Time 7:09 AM CST 5:30 PM CST
Civil Twilight 6:43 AM CST 5:56 PM CST
Nautical Twilight 6:13 AM CST 6:26 PM CST
Astronomical Twilight 5:44 AM CST 6:55 PM CST
Moon 11:57 AM CST 1:02 AM CST
Length of Visible Light 11h 13m
Length of Day
10h 20m
First Quarter, 61% of the Moon is Illuminated
Jan 16
First Quarter
Jan 22
Full
Jan 29
Last Quarter
Feb 6
New
Feb 13
First Quarter

Hourly Weather History & Observations

Time (CST) Temp. Dew Point Humidity Pressure Visibility Wind Dir Wind Speed Gust Speed Precip Events Conditions
12:53 AM 50.0 °F 43.0 °F 77% 30.08 in 9.0 mi Calm Calm - 0.01 in Rain Light Rain
1:53 AM 50.0 °F 45.0 °F 83% 30.08 in 8.0 mi Calm Calm - 0.02 in Rain Light Rain
2:53 AM 48.9 °F 45.0 °F 86% 30.06 in 5.0 mi Calm Calm - 0.05 in Rain Light Rain
3:53 AM 48.9 °F 45.0 °F 86% 30.05 in 7.0 mi East 3.5 mph - 0.06 in Rain Light Rain
4:53 AM 48.9 °F 45.0 °F 86% 30.04 in 4.0 mi ESE 6.9 mph - 0.11 in Rain Rain
5:18 AM 48.2 °F 44.6 °F 87% 30.03 in 5.0 mi ESE 6.9 mph - 0.03 in Rain Light Rain
5:34 AM 48.2 °F 44.6 °F 87% 30.02 in 4.0 mi East 9.2 mph - 0.05 in   Overcast
5:53 AM 48.0 °F 45.0 °F 89% 30.03 in 4.0 mi ESE 10.4 mph - 0.06 in   Overcast
6:53 AM 48.0 °F 45.0 °F 89% 30.01 in 4.0 mi ESE 10.4 mph - 0.04 in Rain Light Rain
7:53 AM 48.0 °F 44.1 °F 86% 30.02 in 4.0 mi SE 16.1 mph - 0.06 in Rain Rain
7:59 AM 48.2 °F 44.6 °F 87% 29.99 in 2.5 mi SE 17.3 mph - 0.01 in Rain Rain
8:29 AM 48.2 °F 44.6 °F 87% 30.00 in 3.0 mi ESE 16.1 mph - 0.05 in Rain Light Rain
8:53 AM 48.0 °F 44.1 °F 86% 30.03 in 3.0 mi ESE 12.7 mph 21.9 mph 0.07 in Rain Light Rain
9:00 AM 48.2 °F 44.6 °F 87% 30.01 in 5.0 mi ESE 9.2 mph - 0.00 in Rain Light Rain
9:13 AM 48.2 °F 44.6 °F 87% 30.02 in 3.0 mi ESE 11.5 mph - 0.01 in Rain Light Rain
9:53 AM 48.0 °F 45.0 °F 89% 30.04 in 3.0 mi ESE 11.5 mph - 0.09 in Rain Rain
10:07 AM 48.2 °F 44.6 °F 87% 30.02 in 2.0 mi ESE 11.5 mph - 0.05 in Rain Heavy Rain
10:32 AM 48.2 °F 44.6 °F 87% 30.01 in 3.0 mi East 10.4 mph - 0.11 in Rain Light Rain
10:53 AM 48.9 °F 45.0 °F 86% 30.01 in 5.0 mi East 9.2 mph - 0.12 in Rain Light Rain
11:53 AM 48.9 °F 45.0 °F 86% 29.96 in 9.0 mi ENE 5.8 mph - 0.03 in Rain Light Rain
12:53 PM 48.9 °F 46.0 °F 90% 29.95 in 4.0 mi East 8.1 mph - 0.02 in Rain Rain
1:53 PM 50.0 °F 46.9 °F 89% 29.89 in 10.0 mi East 10.4 mph - 0.02 in Rain Light Rain
2:53 PM 50.0 °F 46.0 °F 86% 29.90 in 10.0 mi East 5.8 mph - N/A   Overcast
3:53 PM 50.0 °F 46.0 °F 86% 29.92 in 10.0 mi NNE 3.5 mph - N/A   Overcast
4:53 PM 50.0 °F 46.0 °F 86% 29.93 in 10.0 mi NE 5.8 mph - 0.00 in   Overcast
5:53 PM 48.9 °F 45.0 °F 86% 29.93 in 10.0 mi NE 5.8 mph - N/A   Overcast
6:53 PM 48.9 °F 45.0 °F 86% 29.96 in 10.0 mi NNE 6.9 mph - N/A   Overcast
7:53 PM 48.0 °F 45.0 °F 89% 29.99 in 6.0 mi NNE 5.8 mph - N/A   Overcast
8:08 PM 48.2 °F 44.6 °F 87% 29.97 in 7.0 mi NNE 5.8 mph - N/A   Overcast
8:22 PM 48.2 °F 44.6 °F 87% 29.97 in 9.0 mi NE 5.8 mph - N/A   Overcast
8:53 PM 48.0 °F 45.0 °F 89% 29.99 in 10.0 mi NNE 4.6 mph - N/A   Overcast
9:36 PM 48.2 °F 44.6 °F 87% 29.99 in 10.0 mi NNE 3.5 mph - N/A   Overcast
9:53 PM 48.0 °F 45.0 °F 89% 30.00 in 10.0 mi North 4.6 mph - N/A   Overcast
10:53 PM 48.0 °F 45.0 °F 89% 30.01 in 10.0 mi Calm Calm - N/A   Overcast
11:53 PM 48.0 °F 45.0 °F 89% 30.00 in 10.0 mi Calm Calm - N/A   Overcast